Change the Weather History Date:

Monday, March 17, 2014

  Actual Average Record
Temperature  
Mean Temperature 42 °F -  
Max Temperature 57 °F 46 °F 82 °F (2012)
Min Temperature 28 °F 25 °F 2 °F (1993)
Degree Days  
Heating Degree Days 22    
Moisture  
Dew Point 22 °F    
Average Humidity 49    
Maximum Humidity 64    
Minimum Humidity 31    
Precipitation  
Precipitation 0.00 in - - ()
Sea Level Pressure  
Sea Level Pressure 29.58 in    
Wind  
Wind Speed 17 mph (South)    
Max Wind Speed 24 mph    
Max Gust Speed 31 mph    
Visibility 10 miles    
Events      
Averages and records for this station are not official NWS values.
T = Trace of Precipitation, MM = Missing Value Source: NWS Daily Summary

Daily Weather History Graph

Daily Weather History Graph

Search for Another Location

Airport or City:

Trip Planner

Search our weather history database for the weather conditions in past years. The results will help you decide how hot, cold, wet, or windy it might be!

Date:

Astronomy

Mar. 17, 2014 Rise Set
Actual Time 7:33 AM CDT 7:33 PM CDT
Civil Twilight 7:05 AM CDT 8:01 PM CDT
Nautical Twilight 6:32 AM CDT 8:34 PM CDT
Astronomical Twilight 5:58 AM CDT 9:08 PM CDT
Moon 8:54 PM CDT (3/17) 7:47 AM CDT (3/17)
Length of Visible Light 12h 56m
Length of Day
12h 00m
Full, 99% of the Moon is Illuminated
Mar 17
Full
Mar 23
Last Quarter
Mar 30
New
Apr 7
First Quarter
Apr 15
Full

Hourly Weather History & Observations

Time (CDT) Temp. Windchill Dew Point Humidity Pressure Visibility Wind Dir Wind Speed Gust Speed Precip Events Conditions
12:15 AM 28.4 °F 16.6 °F 15.8 °F 59% 29.98 in 10.0 mi South 16.1 mph - N/A   Overcast
12:35 AM 28.4 °F 18.0 °F 15.8 °F 59% 29.97 in 10.0 mi South 12.7 mph 18.4 mph N/A   Overcast
1:15 AM 28.4 °F 17.0 °F 17.6 °F 64% 29.95 in 10.0 mi South 15.0 mph 23.0 mph N/A   Mostly Cloudy
1:35 AM 28.4 °F 15.4 °F 17.6 °F 64% 29.91 in 10.0 mi South 19.6 mph - N/A   Mostly Cloudy
1:55 AM 28.4 °F 14.7 °F 17.6 °F 64% 29.89 in 10.0 mi South 21.9 mph - N/A   Overcast
2:15 AM 28.4 °F 16.6 °F 17.6 °F 64% 29.88 in 10.0 mi South 16.1 mph 26.5 mph N/A   Mostly Cloudy
2:35 AM 28.4 °F 15.8 °F 17.6 °F 64% 29.89 in 10.0 mi South 18.4 mph - N/A   Mostly Cloudy
2:55 AM 28.4 °F 15.8 °F 17.6 °F 64% 29.87 in 10.0 mi South 18.4 mph 27.6 mph N/A   Overcast
3:15 AM 28.4 °F 16.2 °F 17.6 °F 64% 29.85 in 10.0 mi South 17.3 mph 26.5 mph N/A   Mostly Cloudy
3:35 AM 28.4 °F 15.8 °F 17.6 °F 64% 29.84 in - South 18.4 mph 24.2 mph N/A   Partly Cloudy
3:55 AM 28.4 °F 15.4 °F 17.6 °F 64% 29.82 in 10.0 mi South 19.6 mph - N/A   Scattered Clouds
4:15 AM 28.4 °F 15.1 °F 17.6 °F 64% 29.80 in 10.0 mi South 20.7 mph 27.6 mph N/A   Mostly Cloudy
4:35 AM 28.4 °F 15.4 °F 17.6 °F 64% 29.78 in 10.0 mi South 19.6 mph 27.6 mph N/A   Overcast
4:55 AM 28.4 °F 15.1 °F 17.6 °F 64% 29.76 in 10.0 mi South 20.7 mph - N/A   Overcast
5:15 AM 28.4 °F 14.7 °F 17.6 °F 64% 29.75 in 10.0 mi South 21.9 mph 28.8 mph N/A   Overcast
5:35 AM 28.4 °F 15.1 °F 17.6 °F 64% 29.74 in 10.0 mi South 20.7 mph 28.8 mph N/A   Overcast
5:55 AM 28.4 °F 16.2 °F 17.6 °F 64% 29.74 in 10.0 mi South 17.3 mph - N/A   Overcast
6:15 AM 28.4 °F 15.4 °F 17.6 °F 64% 29.73 in 10.0 mi South 19.6 mph - N/A   Mostly Cloudy
6:35 AM 28.4 °F 15.8 °F 17.6 °F 64% 29.72 in 10.0 mi South 18.4 mph 26.5 mph N/A   Overcast
6:55 AM 30.2 °F 19.3 °F 17.6 °F 60% 29.71 in 10.0 mi South 15.0 mph 21.9 mph N/A   Overcast
7:15 AM 28.4 °F 15.8 °F 17.6 °F 64% 29.69 in 10.0 mi South 18.4 mph 29.9 mph N/A   Overcast
7:35 AM 28.4 °F 16.6 °F 17.6 °F 64% 29.69 in 10.0 mi South 16.1 mph 24.2 mph N/A   Mostly Cloudy
7:55 AM 28.4 °F 17.5 °F 17.6 °F 64% 29.69 in 10.0 mi South 13.8 mph 20.7 mph N/A   Partly Cloudy
8:15 AM 28.4 °F 16.2 °F 17.6 °F 64% 29.67 in 10.0 mi South 17.3 mph 23.0 mph N/A   Clear
8:35 AM 28.4 °F 15.4 °F 17.6 °F 64% 29.66 in 10.0 mi South 19.6 mph - N/A   Clear
8:55 AM 30.2 °F 17.4 °F 17.6 °F 60% 29.65 in 10.0 mi South 20.7 mph 26.5 mph N/A   Clear
9:15 AM 30.2 °F 18.1 °F 17.6 °F 60% 29.64 in 10.0 mi South 18.4 mph 25.3 mph N/A   Clear
9:35 AM 32.0 °F 20.5 °F 19.4 °F 60% 29.63 in 10.0 mi South 18.4 mph 26.5 mph N/A   Clear
9:55 AM 33.8 °F 21.9 °F 19.4 °F 56% 29.60 in 10.0 mi South 21.9 mph - N/A   Clear
10:15 AM 35.6 °F 23.7 °F 19.4 °F 52% 29.59 in 10.0 mi South 24.2 mph - N/A   Clear
10:35 AM 37.4 °F 26.9 °F 19.4 °F 48% 29.58 in 10.0 mi South 20.7 mph 28.8 mph N/A   Clear
10:55 AM 39.2 °F 29.6 °F 19.4 °F 45% 29.58 in 10.0 mi South 19.6 mph 27.6 mph N/A   Clear
11:15 AM 41.0 °F 31.4 °F 21.2 °F 45% 29.58 in 10.0 mi SSW 21.9 mph 28.8 mph N/A   Clear
11:35 AM 41.0 °F 31.1 °F 21.2 °F 45% 29.56 in 10.0 mi SSW 23.0 mph 28.8 mph N/A   Clear
11:55 AM 42.8 °F 34.3 °F 21.2 °F 42% 29.55 in 10.0 mi SSW 19.6 mph 27.6 mph N/A   Clear
12:15 PM 42.8 °F 33.8 °F 21.2 °F 42% 29.55 in 10.0 mi South 21.9 mph - N/A   Clear
12:35 PM 44.6 °F 37.4 °F 23.0 °F 43% 29.54 in 10.0 mi SSW 16.1 mph 24.2 mph N/A   Clear
12:55 PM 44.6 °F 37.8 °F 23.0 °F 43% 29.53 in 10.0 mi SSW 15.0 mph 21.9 mph N/A   Clear
1:15 PM 48.2 °F - 23.0 °F 37% 29.51 in 10.0 mi South 16.1 mph 21.9 mph N/A   Clear
1:35 PM 48.2 °F - 23.0 °F 37% 29.49 in 10.0 mi South 18.4 mph 25.3 mph N/A   Clear
1:55 PM 50.0 °F - 24.8 °F 37% 29.48 in 10.0 mi South 17.3 mph 27.6 mph N/A   Clear
2:15 PM 51.8 °F - 24.8 °F 35% 29.46 in - SSW 19.6 mph 25.3 mph N/A   Clear
2:35 PM 51.8 °F - 24.8 °F 35% 29.46 in 10.0 mi South 18.4 mph - N/A   Clear
2:55 PM 51.8 °F - 24.8 °F 35% 29.45 in 10.0 mi South 19.6 mph 27.6 mph N/A   Clear
3:15 PM 53.6 °F - 24.8 °F 33% 29.45 in 10.0 mi South 19.6 mph 27.6 mph N/A   Clear
3:35 PM 53.6 °F - 24.8 °F 33% 29.43 in 10.0 mi South 16.1 mph 27.6 mph N/A   Clear
3:55 PM 53.6 °F - 24.8 °F 33% 29.43 in 10.0 mi South 20.7 mph 31.1 mph N/A   Clear
4:15 PM 53.6 °F - 24.8 °F 33% 29.42 in 10.0 mi South 19.6 mph - N/A   Clear
4:35 PM 53.6 °F - 24.8 °F 33% 29.42 in 10.0 mi South 18.4 mph 25.3 mph N/A   Clear
4:55 PM 55.4 °F - 26.6 °F 33% 29.41 in 10.0 mi South 16.1 mph - N/A   Clear
5:15 PM 55.4 °F - 26.6 °F 33% 29.40 in 10.0 mi South 15.0 mph 25.3 mph N/A   Clear
5:35 PM 55.4 °F - 26.6 °F 33% 29.40 in 10.0 mi South 16.1 mph 24.2 mph N/A   Clear
5:55 PM 57.2 °F - 26.6 °F 31% 29.39 in 10.0 mi South 17.3 mph 25.3 mph N/A   Clear
6:15 PM 55.4 °F - 26.6 °F 33% 29.39 in 10.0 mi South 17.3 mph 24.2 mph N/A   Clear
6:35 PM 55.4 °F - 26.6 °F 33% 29.39 in 10.0 mi SSE 15.0 mph 20.7 mph N/A   Clear
6:55 PM 55.4 °F - 26.6 °F 33% 29.38 in 10.0 mi South 16.1 mph - N/A   Clear
7:15 PM 53.6 °F - 26.6 °F 35% 29.38 in 10.0 mi SSE 10.4 mph 17.3 mph N/A   Clear
7:35 PM 53.6 °F - 26.6 °F 35% 29.38 in 10.0 mi SSE 11.5 mph - N/A   Clear
7:55 PM 53.6 °F - 26.6 °F 35% 29.38 in 10.0 mi SSE 12.7 mph 19.6 mph N/A   Clear
8:15 PM 51.8 °F - 26.6 °F 38% 29.38 in 10.0 mi SSE 12.7 mph - N/A   Clear
8:35 PM 50.0 °F - 28.4 °F 43% 29.37 in 10.0 mi SSE 12.7 mph - N/A   Clear
8:55 PM 50.0 °F - 28.4 °F 43% 29.37 in 10.0 mi SSE 10.4 mph 18.4 mph N/A   Clear
9:15 PM 48.2 °F - 28.4 °F 46% 29.37 in 10.0 mi SSE 12.7 mph - N/A   Clear
9:35 PM 48.2 °F - 28.4 °F 46% 29.38 in 10.0 mi SSE 10.4 mph - N/A   Clear
9:55 PM 46.4 °F 40.7 °F 28.4 °F 50% 29.38 in 10.0 mi SSE 12.7 mph - N/A   Clear
10:15 PM 46.4 °F 40.7 °F 28.4 °F 50% 29.38 in 10.0 mi SSE 12.7 mph - N/A   Partly Cloudy
10:55 PM 46.4 °F 40.7 °F 28.4 °F 50% 29.39 in 10.0 mi SSE 12.7 mph 21.9 mph N/A   Scattered Clouds
11:15 PM 46.4 °F 40.7 °F 28.4 °F 50% 29.39 in 10.0 mi SSE 12.7 mph 20.7 mph N/A   Scattered Clouds
11:35 PM 46.4 °F 39.8 °F 26.6 °F 46% 29.39 in 10.0 mi SSE 16.1 mph 23.0 mph N/A   Scattered Clouds
11:55 PM 46.4 °F 40.1 °F 28.4 °F 50% 29.40 in 10.0 mi South 15.0 mph - N/A   Partly Cloudy